Montoursville, PA

1:35 AM EST on January 20, 2017 (GMT -0500)
Williamsport Rgnl

Weather History for KIPT - February, 2014

Change the Weather History Date:

Tuesday, February 25, 2014

  Actual Average Record
Temperature  
Mean Temperature 25 °F 32 °F  
Max Temperature 30 °F 41 °F 69 °F (1976)
Min Temperature 19 °F 23 °F -9 °F (1914)
Degree Days  
Heating Degree Days 40 33  
Month to date heating degree days 1012 890  
Since 1 July heating degree days 4682 4369  
Cooling Degree Days 0 0  
Month to date cooling degree days 0 0  
Year to date cooling degree days 0 0  
Moisture  
Dew Point 10 °F    
Average Humidity 55    
Maximum Humidity 68    
Minimum Humidity 42    
Precipitation  
Precipitation T in 0.09 in 0.84 in (2011)
Month to date precipitation 2.55 2.09  
Year to date precipitation 3.80 4.79  
Snow  
Snow T in 0.30 in 3.70 in (1966)
Month to date snowfall 21.6 7.9  
Since 1 July snowfall 45.8 27.1  
Snow Depth 1.00 in    
Sea Level Pressure  
Sea Level Pressure 30.04 in    
Wind  
Wind Speed 8 mph (West)    
Max Wind Speed 18 mph    
Max Gust Speed 23 mph    
Visibility 10 miles    
Events      
T = Trace of Precipitation, MM = Missing Value Source: NWS Daily Summary

Daily Weather History Graph

Daily Weather History Graph

Search for Another Location

Airport or City:

Trip Planner

Search our weather history database for the weather conditions in past years. The results will help you decide how hot, cold, wet, or windy it might be!

Date:

Astronomy

Feb. 25, 2014 Rise Set
Actual Time 6:48 AM EST 5:53 PM EST
Civil Twilight 6:20 AM EST 6:21 PM EST
Nautical Twilight 5:48 AM EST 6:53 PM EST
Astronomical Twilight 5:16 AM EST 7:25 PM EST
Moon 3:42 AM EST (2/25) 1:55 PM EST (2/25)
Length of Visible Light 12h 01m
Length of Day
11h 05m
Waning Crescent, 18% of the Moon is Illuminated
Feb 25
Waning Crescent
Mar 1
New
Mar 8
First Quarter
Mar 16
Full
Mar 23
Last Quarter

Hourly Weather History & Observations

Time (EST) Temp. Windchill Dew Point Humidity Pressure Visibility Wind Dir Wind Speed Gust Speed Precip Events Conditions
12:54 AM 21.9 °F - 8.1 °F 55% 30.09 in 10.0 mi Calm Calm - N/A   Clear
1:54 AM 21.0 °F 16.2 °F 9.0 °F 60% 30.08 in 10.0 mi West 3.5 mph - N/A   Scattered Clouds
2:54 AM 21.0 °F - 10.0 °F 63% 30.07 in 10.0 mi Calm Calm - N/A   Mostly Cloudy
3:54 AM 19.0 °F 13.9 °F 10.0 °F 68% 30.06 in 10.0 mi WNW 3.5 mph - N/A   Scattered Clouds
4:54 AM 19.9 °F - 10.0 °F 65% 30.06 in 10.0 mi Calm Calm - N/A   Clear
5:54 AM 21.0 °F 13.4 °F 10.9 °F 65% 30.06 in 10.0 mi WNW 5.8 mph - N/A   Mostly Cloudy
6:54 AM 21.0 °F 13.4 °F 10.9 °F 65% 30.06 in 10.0 mi West 5.8 mph - N/A   Overcast
7:54 AM 21.9 °F 13.4 °F 10.9 °F 63% 30.07 in 10.0 mi West 6.9 mph - N/A   Overcast
8:54 AM 23.0 °F 13.9 °F 14.0 °F 68% 30.08 in 10.0 mi West 8.1 mph - N/A   Overcast
9:54 AM 24.1 °F 11.5 °F 14.0 °F 65% 30.07 in 10.0 mi WSW 15.0 mph - N/A   Overcast
10:54 AM 26.1 °F 14.0 °F 14.0 °F 60% 30.06 in 10.0 mi WSW 15.0 mph - N/A   Overcast
11:54 AM 26.1 °F 14.5 °F 14.0 °F 60% 30.05 in 10.0 mi WSW 13.8 mph - 0.00 in   Overcast
12:54 PM 28.0 °F 17.0 °F 10.9 °F 49% 30.02 in 10.0 mi West 13.8 mph 23.0 mph N/A   Overcast
1:54 PM 28.9 °F 18.6 °F 10.9 °F 47% 30.00 in 10.0 mi West 12.7 mph - N/A   Overcast
2:54 PM 28.0 °F 17.5 °F 9.0 °F 45% 29.99 in 10.0 mi West 12.7 mph 19.6 mph N/A   Mostly Cloudy
3:54 PM 28.9 °F 19.8 °F 9.0 °F 43% 29.99 in 10.0 mi West 10.4 mph - N/A   Mostly Cloudy
4:54 PM 28.0 °F 18.6 °F 8.1 °F 43% 29.99 in 10.0 mi WNW 10.4 mph - N/A   Overcast
5:54 PM 27.0 °F 17.3 °F 8.1 °F 45% 30.00 in 10.0 mi West 10.4 mph - N/A   Overcast
6:54 PM 25.0 °F 15.5 °F 9.0 °F 51% 30.02 in 10.0 mi WSW 9.2 mph - N/A   Mostly Cloudy
7:54 PM 24.1 °F 15.2 °F 9.0 °F 53% 30.02 in 10.0 mi WSW 8.1 mph - N/A   Clear
8:54 PM 23.0 °F 15.8 °F 8.1 °F 53% 30.01 in 10.0 mi West 5.8 mph - N/A   Clear
9:54 PM 21.9 °F 14.5 °F 8.1 °F 55% 30.00 in 10.0 mi West 5.8 mph - N/A   Mostly Cloudy
10:54 PM 21.9 °F 17.2 °F 8.1 °F 55% 29.98 in 10.0 mi WNW 3.5 mph - N/A   Overcast
11:54 PM 19.9 °F - 10.0 °F 65% 29.97 in 10.0 mi Calm Calm - N/A   Overcast